Simultaneous Nadir Overpasses (SNOs) Predictions

Prediction of SNOs between AQUA and NOAA-19 Satellite Orbit:

Table of predicted SNOs for the next 14.0 days since TLE Epoch: 7/21/2023
Index Date (AQUA) Time (AQUA) Lat,Lon (AQUA) SZA (AQUA ) Date (NOAA-19) Time (NOAA-19) Lat,Lon (NOAA-19) SZA (NOAA-19 ) Distance(km) Time Diff (sec)
1 07/22/2023 21:29:55 76.35,-151.30 56.34 07/22/2023 21:29:16 76.38,-151.22 56.37 3.26 39
2 07/22/2023 22:19:20 -76.41, 16.14 123.58 07/22/2023 22:20:12 -76.40, 16.15 123.60 1.44 52
3 07/25/2023 02:11:52 76.32, 138.33 56.76 07/25/2023 02:10:44 76.32, 138.29 56.78 1.22 68
4 07/25/2023 03:01:17 -76.38, -54.21 123.17 07/25/2023 03:01:40 -76.37, -54.26 123.17 1.61 23
5 07/27/2023 07:43:14 -76.38,-124.67 122.69 07/27/2023 07:43:07 -76.38,-124.53 122.69 3.64 7
6 07/29/2023 12:25:10 -76.36, 164.93 122.21 07/29/2023 12:24:35 -76.34, 165.01 122.22 3.01 35
7 07/29/2023 13:14:35 76.37, -27.47 57.82 07/29/2023 13:15:35 76.37, -27.61 57.82 3.77 60
8 07/31/2023 17:07:05 -76.32, 94.59 121.72 07/31/2023 17:06:02 -76.34, 94.70 121.70 3.02 63
9 07/31/2023 17:56:31 76.39, -97.98 58.37 07/31/2023 17:57:01 76.39, -97.85 58.36 3.48 30
10 08/02/2023 22:38:25 76.35,-168.28 58.87 08/02/2023 22:38:28 76.35,-168.29 58.88 0.49 3



Historial Predications of SNOs between AQUA and NOAA-19
